Location: Mount Cross
(36.6390°N, 79.4878°W)
Time: 09:27:14
(UTC+00:00)

Vanguard 1 Rocket - Pass Details

Date: 06 April 2023
Orbit: 654 x 4221 km, 34.3° (Epoch: 01 June)

Event Time Altitude Azimuth Distance (km) Brightness Sun altitude
Rises 21:44:16 0° 199° (SSW) 6,594 12.2 23.2°
Reaches altitude 10° 21:48:53 10° 190° (S) 6,033 11.9 22.2°
Maximum altitude 22:06:26 34° 133° (SE) 5,419 11.2 18.7°
Drops below altitude 10° 22:27:28 10° 80° (E) 7,296 11.4 14.5°
Sets 22:33:41 0° 73° (ENE) 8,093 11.6 13.3°
